• Currently

    Reported at Wellington Airport
    11:30 PM GMT12 WED JUN 28 2017
  • 50°F10°C
  • Drizzle
    Drizzle
  • Feels Like:50°F10°CDew Point:46°F8°CHumidity:88% Winds:S 9 mph 14 kph
    Pressure:30.27 in1025 hPaVisibility:6.21 miles10000.00 meters
Time Weather Temp Dew Point
Humidity Winds Visibility Pressure Precipitation
1 hr 24 hr
Wednesday, June 28
22:30 22:30 Mostly Cloudy With Drizzle Mostly Cloudy With Drizzle 50°F10°C 46°F8°C 88% S 9 mphS 15 kph 30.0 miles48.3 km 30.27 in1025 hPa -- --
22:00 22:00 Mostly Cloudy Mostly Cloudy 50°F10°C 45°F7°C 82% S 12 mphS 19 kph 30.0 miles48.3 km 30.27 in1025 hPa -- --
21:30 21:30 Mostly Cloudy Mostly Cloudy 50°F10°C 45°F7°C 82% S 10 mphS 17 kph 30.0 miles48.3 km 30.27 in1025 hPa -- --
21:00 21:00 Cloudy Cloudy 50°F10°C 46°F8°C 88% S 10 mphS 17 kph 30.0 miles48.3 km 30.27 in1025 hPa -- --
20:30 20:30 Cloudy Cloudy 50°F10°C 46°F8°C 88% S 12 mphS 19 kph 30.0 miles48.3 km 30.27 in1025 hPa -- --
20:00 20:00 Cloudy Cloudy 50°F10°C 46°F8°C 88% S 10 mphS 17 kph 30.0 miles48.3 km 30.27 in1025 hPa -- --
19:30 19:30 Cloudy With Drizzle Cloudy With Drizzle 50°F10°C 46°F8°C 88% S 12 mphS 19 kph 30.0 miles48.3 km 30.27 in1025 hPa -- --
19:00 19:00 Cloudy Cloudy 52°F11°C 46°F8°C 82% S 10 mphS 17 kph 30.0 miles48.3 km 30.27 in1025 hPa -- --
18:30 18:30 Mostly Cloudy Mostly Cloudy 50°F10°C 46°F8°C 88% S 12 mphS 19 kph 30.0 miles48.3 km 30.24 in1024 hPa -- --
18:00 18:00 Cloudy Cloudy 52°F11°C 46°F8°C 82% S 12 mphS 19 kph 30.0 miles48.3 km 30.24 in1024 hPa -- --
17:30 17:30 Mostly Cloudy Mostly Cloudy 52°F11°C 46°F8°C 82% S 12 mphS 19 kph 30.0 miles48.3 km 30.24 in1024 hPa -- --
17:00 17:00 Cloudy Cloudy 52°F11°C 46°F8°C 82% S 10 mphS 17 kph 30.0 miles48.3 km 30.24 in1024 hPa -- --
16:30 16:30 Cloudy Cloudy 52°F11°C 46°F8°C 82% S 10 mphS 17 kph 30.0 miles48.3 km 30.24 in1024 hPa -- --
16:00 16:00 Cloudy Cloudy 50°F10°C 46°F8°C 88% S 12 mphS 19 kph 30.0 miles48.3 km 30.24 in1024 hPa -- --
15:30 15:30 Cloudy Cloudy 52°F11°C 46°F8°C 82% S 13 mphS 20 kph 30.0 miles48.3 km 30.21 in1023 hPa -- --
15:00 15:00 Cloudy Cloudy 52°F11°C 46°F8°C 82% S 13 mphS 20 kph 30.0 miles48.3 km 30.21 in1023 hPa -- --
14:30 14:30 Mostly Cloudy Mostly Cloudy 52°F11°C 46°F8°C 82% S 13 mphS 20 kph 30.0 miles48.3 km 30.21 in1023 hPa -- --
14:00 14:00 Cloudy Cloudy 52°F11°C 46°F8°C 82% S 13 mphS 20 kph 30.0 miles48.3 km 30.21 in1023 hPa -- --
13:30 13:30 Cloudy Cloudy 52°F11°C 46°F8°C 82% S 13 mphS 20 kph 30.0 miles48.3 km 30.21 in1023 hPa -- --
13:00 13:00 Mostly Cloudy Mostly Cloudy 52°F11°C 46°F8°C 82% S 14 mphS 22 kph 30.0 miles48.3 km 30.21 in1023 hPa -- --
12:30 12:30 Cloudy With Showers Nearby Cloudy With Showers Nearby 52°F11°C 46°F8°C 82% S 16 mphS 26 kph 30.0 miles48.3 km 30.21 in1023 hPa -- --
12:00 12:00 Cloudy Cloudy 52°F11°C 46°F8°C 82% SSW 16 mphSSW 26 kph 30.0 miles48.3 km 30.21 in1023 hPa -- --
11:30 11:30 Mostly Cloudy Mostly Cloudy 52°F11°C 46°F8°C 82% S 15 mphS 24 kph 30.0 miles48.3 km 30.21 in1023 hPa -- --
11:00 11:00 Cloudy With Showers Nearby Cloudy With Showers Nearby 52°F11°C 46°F8°C 82% SSW 18 mphSSW 30 kph 30.0 miles48.3 km 30.24 in1024 hPa -- --
10:30 10:30 Cloudy With Showers Nearby Cloudy With Showers Nearby 52°F11°C 46°F8°C 82% SSW 18 mphSSW 30 kph 30.0 miles48.3 km 30.24 in1024 hPa -- --
10:00 10:00 Mostly Cloudy Mostly Cloudy 52°F11°C 46°F8°C 82% SSW 18 mphSSW 30 kph 30.0 miles48.3 km 30.24 in1024 hPa -- --
09:30 09:30 Cloudy Cloudy 52°F11°C 46°F8°C 82% SSW 17 mphSSW 28 kph 30.0 miles48.3 km 30.24 in1024 hPa -- --
09:00 09:00 Mostly Cloudy Mostly Cloudy 52°F11°C 46°F8°C 82% SSW 17 mphSSW 28 kph 30.0 miles48.3 km 30.24 in1024 hPa -- --
08:30 08:30 Mostly Cloudy Mostly Cloudy 52°F11°C 46°F8°C 82% S 17 mphS 28 kph 30.0 miles48.3 km 30.24 in1024 hPa -- --
08:00 08:00 Cloudy With Showers Nearby Cloudy With Showers Nearby 50°F10°C 48°F9°C 94% SSW 16 mphSSW 26 kph 30.0 miles48.3 km 30.21 in1023 hPa -- --
07:30 07:30 Mostly Cloudy With Light Rain Mostly Cloudy With Light Rain 50°F10°C 46°F8°C 88% SSW 16 mphSSW 26 kph 30.0 miles48.3 km 30.21 in1023 hPa -- --
07:00 07:00 Cloudy Cloudy 52°F11°C 45°F7°C 77% S 16 mphS 26 kph 30.0 miles48.3 km 30.21 in1023 hPa -- --
06:30 06:30 Mostly Cloudy Mostly Cloudy 52°F11°C 45°F7°C 77% S 15 mphS 24 kph 30.0 miles48.3 km 30.21 in1023 hPa -- --
06:00 06:00 Mostly Cloudy Mostly Cloudy 52°F11°C 45°F7°C 77% S 15 mphS 24 kph 30.0 miles48.3 km 30.18 in1022 hPa -- --
05:30 05:30 Mostly Cloudy Mostly Cloudy 52°F11°C 45°F7°C 77% S 15 mphS 24 kph 30.0 miles48.3 km 30.18 in1022 hPa -- --
05:00 05:00 Mostly Cloudy Mostly Cloudy 52°F11°C 45°F7°C 77% S 14 mphS 22 kph 30.0 miles48.3 km 30.18 in1022 hPa -- --
04:30 04:30 Mostly Cloudy Mostly Cloudy 52°F11°C 46°F8°C 82% S 15 mphS 24 kph 30.0 miles48.3 km 30.18 in1022 hPa -- --
04:00 04:00 Cloudy Cloudy 52°F11°C 46°F8°C 82% S 13 mphS 20 kph 30.0 miles48.3 km 30.18 in1022 hPa -- --
03:30 03:30 Mostly Cloudy Mostly Cloudy 52°F11°C 46°F8°C 82% S 14 mphS 22 kph 30.0 miles48.3 km 30.18 in1022 hPa -- --
03:00 03:00 Mostly Cloudy With Showers Mostly Cloudy With Showers 50°F10°C 46°F8°C 88% S 10 mphS 17 kph 30.0 miles48.3 km 30.18 in1022 hPa -- --
02:30 02:30 Mostly Cloudy With Showers Mostly Cloudy With Showers 52°F11°C 46°F8°C 82% S 12 mphS 19 kph 30.0 miles48.3 km 30.18 in1022 hPa -- --
02:00 02:00 Mostly Clear Mostly Clear 52°F11°C 46°F8°C 82% S 14 mphS 22 kph 30.0 miles48.3 km 30.18 in1022 hPa -- --
01:30 01:30 Mostly Clear Mostly Clear 50°F10°C 46°F8°C 88% S 13 mphS 20 kph 30.0 miles48.3 km 30.18 in1022 hPa -- --
01:00 01:00 Partly Cloudy Partly Cloudy 50°F10°C 46°F8°C 88% S 13 mphS 20 kph 30.0 miles48.3 km 30.18 in1022 hPa -- --
00:30 00:30 Mostly Cloudy Mostly Cloudy 52°F11°C 46°F8°C 82% S 14 mphS 22 kph 30.0 miles48.3 km 30.15 in1021 hPa -- --
00:00 00:00 Mostly Cloudy Mostly Cloudy 52°F11°C 46°F8°C 82% S 14 mphS 22 kph 30.0 miles48.3 km 30.15 in1021 hPa -- --
23:30 23:30 Mostly Cloudy Mostly Cloudy 52°F11°C 46°F8°C 82% S 13 mphS 20 kph 30.0 miles48.3 km 30.15 in1021 hPa -- --
23:00 23:00 Mostly Cloudy Mostly Cloudy 50°F10°C 46°F8°C 88% SSE 3 mphSSE 6 kph 30.0 miles48.3 km 30.15 in1021 hPa -- --